Simultaneous Nadir Overpasses (SNOs) Predictions

Prediction of SNOs between AQUA and METOP-B Satellite Orbit:

Table of predicted SNOs for the next 14.0 days since TLE Epoch: 12/7/2013
Index Date (AQUA) Time (AQUA) Lat,Lon (AQUA) SZA (AQUA ) Date (METOP-B) Time (METOP-B) Lat,Lon (METOP-B) SZA (METOP-B ) Distance(km) Time Diff (sec)
1 12/08/2013 20:28:13 73.65,-132.46 96.38 12/08/2013 20:27:07 73.68,-132.47 96.41 3.57 66
2 12/08/2013 21:17:40 -73.73, 35.00 83.54 12/08/2013 21:17:49 -73.71, 34.93 83.56 3.20 9
3 12/08/2013 22:07:12 73.96,-157.87 96.71 12/08/2013 22:08:23 73.96,-157.14 96.69 22.56 71
4 12/11/2013 16:02:26 73.65, -66.01 96.63 12/11/2013 16:01:32 73.66, -66.11 96.65 3.35 54
5 12/11/2013 16:51:53 -73.73, 101.46 83.29 12/11/2013 16:52:13 -73.74, 101.40 83.27 2.54 20
6 12/11/2013 17:41:33 74.37, -92.38 97.39 12/11/2013 17:42:39 74.38, -89.67 97.35 81.00 66
7 12/14/2013 11:36:39 73.69, 0.35 96.87 12/14/2013 11:35:56 73.68, 0.34 96.86 1.25 43
8 12/14/2013 12:26:06 -73.76, 167.83 83.06 12/14/2013 12:26:37 -73.76, 167.86 83.06 0.94 31
9 12/17/2013 07:10:50 73.67, 66.85 96.98 12/17/2013 07:10:20 73.69, 66.78 97.01 3.37 30
10 12/17/2013 08:00:18 -73.79,-125.78 82.89 12/17/2013 08:01:01 -73.78,-125.70 82.91 2.76 43
11 12/20/2013 01:55:23 -73.18, -33.31 83.46 12/20/2013 01:54:15 -73.16, -35.37 83.42 66.37 68
12 12/20/2013 02:45:00 73.69, 133.26 97.08 12/20/2013 02:44:43 73.70, 133.20 97.09 1.97 17
13 12/20/2013 03:34:27 -73.76, -59.24 82.85 12/20/2013 03:35:24 -73.79, -59.27 82.83 3.34 57




NCC Satellite Simultaneous Nadir Overpasses (SNOs) Prediction Service
